METEOR 2-1 DEB, 38532

Orbit data source: Space-Track

METEOR 2-1 DEB, 38532 is space debris in LEO originally from a launch on Fri, 11 Jul 1975 UTC launched from the Plesetsk Missile And Space Complex (PKMTR). Debris objects in space refer to the collection of defunct objects orbiting the Earth. Examples of debris include non-operational satellites, rocket bodies, and fragments generated from explosions, collisions, or faulty payload assembly.

Loading next visibility...
Identifier
38532, 1975-064E
Orbit
LEO
Country
Flag of CISCIS
Related business
Manufacturer
Unknown
Mission
Spacecraft
Bus & Motor
Unknown
Mass
Unknown
Launch date (UTC)
1975-07-11 (51 years ago)
Launch vehicle
Unknown
Launch site
Plesetsk Missile And Space Complex (PKMTR)
Object type
Payload
Rocket body
Debris
Shape & HBR
Unknown shape, 0.1 m
Radar Cross Section
Small (<0.1 m²)

Expand to show TLE details & history
Last TLE update: 4 days ago

TLE from 4 days ago
0 METEOR 2-1 DEB
1 38532U 75064E   26169.38322492  .00022604  00000-0  23784-2 0  9990
2 38532  81.1696 200.8972 0012564  87.9579 272.3074 14.89237731108598
Epoch: 2026-06-18T09:11Z
TLE epoch observation values (Epoch: 2026-06-18T09:11:50.633Z)
Latitude
0.00003°
Longitude
156.30889°
Altitude
602.978 km
Speed
7.558 km/s
True Right ascension
13h 23m 35s
True Declination
0° 00' 00"
Sunlit
Object was in daylight at epoch
Visualization orbit readout
Latitude
Unknown
Longitude
Unknown
Altitude
Unknown
Speed
Unknown
Apparent Right ascension
Unknown
Apparent Declination
Unknown
Sunlit
N/A
Visualization observer readout
Local Sidereal Time
23:07:55
Azimuth
Unknown
Elevation
Unknown
Doppler factor
Unknown
Orbital elements
Apogee altitude
606.153 km
Perigee altitude
588.625 km
Semi-major axis
6,975.526 km
Eccentricity
0.00126
Inclination
81.1696°
RAAN
200.8972°
Arg. of periapsis
87.9579°
True anomaly
272.16353°
Mean anomaly
272.3074°
Eccentric anomaly
272.23547°
Mean motion
3.72544 °/min
Orbital period
96.63 mins
BSTAR
0.0023784
Loading maneuver chart data...
Computing Atmospheric mass density...
Loading historical data...
Loading historical data...
Loading historical data...
Loading historical data...
Loading historical data...
Loading historical data...
Loading historical data...
Other satellites on launch #64 in the year 1975 (1975-07-11 UTC)

Documentation

Showing up to 5 results
|